User: anonymous   Login
Location: Unspecified
(0.0000°N, 0.0000°E)
Time: 10:34:41
(UTC+02:00)
Language:

Cosmos 1242 Rocket - Orbit

View from above orbital plane
View from above orbital plane
View from above satellite
View from above satellite

Ground track
Ground track

The orbit data is extracted from the following two-line orbital elements,

1 12155U 81008B   16210.18160378  .00001312  00000-0  44030-4 0  9997
2 12155  81.1632  91.2359 0031186  15.3483 344.8691 15.29638029942903
Epoch (UTC): 28 July 2016 04:21:30
Eccentricity: 0.0031186
inclination: 81.1632°
perigee height: 455 km
apogee height: 498 km
right ascension of ascending node: 91.2359°
argument of perigee: 15.3483°
revolutions per day: 15.29638029
mean anomaly at epoch: 344.8691°
orbit number at epoch: 94290

The dashed part of the orbit path shows where the satellite is in the earth's shadow,  

DLR